Regional Weather Roundup
Issued by NWS Charleston, SC

Current Version | Previous Version | Text Only | Print | Product List | Glossary Off
Versions: 1 2 3 4 5 6 7 8 9 10 11 12 13 14 15 16 17 18 19 20 21 22 23 24 25 26 27 28 29 30 31 32 33 34 35 36 37 38 39 40 41 42 43 44 45 46 47 48 49 50
000 ASUS42 KCHS 250525 RWRCHS REGIONAL WEATHER ROUNDUP NATIONAL WEATHER SERVICE CHARLESTON SC 1200 AM EST THU DEC 25 2014 NOTE: "FAIR" INDICATES FEW OR NO CLOUDS BELOW 12,000 FEET WITH NO SIGNIFICANT WEATHER AND/OR OBSTRUCTIONS TO VISIBILITY. NOT ALL STATIONS ARE QUALITY CONTROLLED BY THE NATIONAL WEATHER SERVICE. USE DATA WITH CAUTION...ESPECIALLY DEWPOINT OBSERVATIONS. SCZ027-030-031-034>040-042>050-250600- ...SOUTHEAST SOUTH CAROLINA... CITY SKY/WX TMP DP RH WIND PRES REMARKS N CHARLESTON CLOUDY 65 63 93 SW9 29.80S WATERFRONT PRK N/A 63 N/A N/A SW6 N/A MOUNT PLEASANT MOCLDY 64 64 100 SW6 29.80F PINOPOLIS NOT AVBL MONCKS CORNER CLOUDY 66 63 88 SW7 29.79F SUMMERVILLE CLOUDY 64 64 100 S6 29.80S BEAUFORT MCAS CLOUDY 66 64 93 SW8 29.81S BEAUFORT ARPT CLOUDY 64 64 100 SW3 29.81S FOG HILTON HEAD IS MOCLDY 64 64 100 S5 29.82F FOG WALTERBORO CLOUDY 68 N/A N/A W15G24 29.80F ALLENDALE CLOUDY 61 55 82 W8G16 29.82R ...SOUTHERN MIDLANDS AND PEE DEE... CITY SKY/WX TMP DP RH WIND PRES REMARKS GEORGETOWN NOT AVBL KINGSTREE NOT AVBL ORANGEBURG LGT RAIN 61 55 81 W13G24 29.79R BARNWELL CLOUDY 59 54 82 W14G21 29.84R AIKEN CLOUDY 52 52 100 W18 29.88R MANNING CLOUDY 66 N/A N/A SW7 29.77S COLUMBIA CLOUDY 58 52 80 W17 29.79S SUMTER CLOUDY 61 57 88 W13G21 29.75R FLORENCE CLOUDY 66 63 90 SW10 29.73F MYRTLE BEACH CLOUDY 64 63 94 SW9 29.78R N MYRTLE BEACH CLOUDY 62 60 93 SW8 29.78R $$ GAZ063-065-086>088-099>101-113>116-118-119-134>141-150-250600- ...SOUTHEAST GEORGIA... CITY SKY/WX TMP DP RH WIND PRES REMARKS SAVANNAH ARPT CLOUDY 64 59 83 W15G29 29.83S HUNTER AAF CLOUDY 63 61 94 W16 29.83R FORT STEWART CLOUDY 61 55 82 W13G18 29.88R STATESBORO CLOUDY 58 58 100 W14G21 29.88R SYLVANIA CLOUDY 59 55 85 W12G21 29.86R CLAXTON CLOUDY 57 52 82 W10 29.90R ...CSRA...CENTRAL AND FAR SOUTHEAST GEORGIA... CITY SKY/WX TMP DP RH WIND PRES REMARKS THOMSON CLOUDY 53 46 79 W12G20 29.91S AUGUSTA-BUSH CLOUDY 54 47 77 NW17G30 29.85R AUGUSTA-DANIEL LGT RAIN 54 45 71 W9 29.87R SWAINSBORO CLOUDY 55 52 88 W12 29.89S VIDALIA CLOUDY 54 48 82 W10 29.90F EASTMAN FAIR 53 46 78 W8G16 29.96R HAZLEHURST CLOUDY 56 53 90 W6 29.92S ALMA CLOUDY 56 47 71 W13G23 29.92R WAYCROSS CLOUDY 61 57 87 NW10 29.94R JESUP CLOUDY 61 55 82 NW15G22 29.91R BAXLEY CLOUDY 55 50 82 W12G18 29.93S BRUNSWICK CLOUDY 64 61 88 W13 29.89R SAINT SIMONS CLOUDY 65 60 84 W8 29.86F $$ SCZ027-028-034-036>038-045-046-048>050-GAZ119-141-250600- ...LAKE AND SUPPLEMENTAL COASTAL OBSERVATIONS... STATION/POSITION TIME TEMP WIND PRES WAVE SWELL AIR SEA DIR/SP/G HT/PER HT/PER/DIR (UTC) (F) (DEG/KT/KT) (MB) (FT/S) (FT/S/D) UPR LAKE MARION NOT AVBL WINYAH BAY 0500 65 230/ 10 1008.0R LAKE MURRAY 0400 56 270/ 16/ 21 1008.8R ACE BASIN NERRS NOT AVBL FORT PULASKI 0500 62 56 150/ 2/ 3 1009.9F SAPELO ISLAND 0500 63 230/ 11 1011.0R $$ ANZ835-935-AMZ111-154-330-350-352-354-370-450-454-472-250600- ...C-MAN AND BUOY OBSERVATIONS... STATION/POSITION TIME TEMP WIND PRES WAVE SWELL AIR SEA DIR/SP/G HT/PER HT/PER/DIR (UTC) (F) (DEG/KT/KT) (MB) (FT/S) (FT/S/D) BUOY 41004 0500 71 73 240/ 23/ 27 1008.2R 6/ 8 5/ 8 BUOY 41008 0500 62 59 220/ 12/ 16 1010.7F 4/ 7 3/140/ 7 FOLLY BEACH CMAN 0500 58 230/ 9/ 13 1010.0S CAPERS NEARSHORE 0400 59 240/ 12/ 14 N/A FRIPP NEARSHORE NOT AVBL STATION/POSITION TIME TEMP WIND PRES WAVE SWELL AIR SEA DIR/SP/G HT/PER HT/PER/DIR (UTC) (F) (DEG/KT/KT) (MB) (FT/S) (FT/S/D) 5E ST. MARYS GA 0500 62 N/A 4/ 6 FRYING PAN BUOY 0500 72 72 200/ 17/ 21 1008.4F 7/ 8 5/180/ 8 BUOY 41025 0500 76 1007.4F 9/ 8 CAPE LOOKOUT NC 0500 66 180/ 19/ 20 1007.3F BUOY 41002 0445 75 72 200/ 19/ 25 1014.1R 7/ 7 BUOY 41010 0500 77 76 190/ 25/ 29 1012.9S 6/ 7 3/220/ 8 ST AUGUSTINE FL 0500 64 250/ 8/ 10 1014.0R $$

USA.gov is the U.S. government's official web portal to all federal, state and local government web resources and services.